User: anonymous   Login
Location: Antichan
(42.9728°N, 0.6667°E)
Time: 02:23:20
(UTC+00:00)
Language:

Cosmos 1763 Rocket - Orbit

View from above orbital plane
View from above orbital plane
View from above satellite
View from above satellite

Ground track
Ground track

The orbit data is extracted from the following two-line orbital elements,

1 16864U 86052B   20302.53653624 +.00000083 +00000-0 +34172-4 0  9999
2 16864 074.0295 339.3205 0031998 135.5853 224.7877 14.40598800799684
Epoch (UTC): 28 October 2020 12:52:36
Eccentricity: 0.0031998
inclination: 74.0295°
perigee height: 733 km
apogee height: 779 km
right ascension of ascending node: 339.3205°
argument of perigee: 135.5853°
revolutions per day: 14.40598800
mean anomaly at epoch: 224.7877°
orbit number at epoch: 79968

The dashed part of the orbit path shows where the satellite is in the earth's shadow,  

DLR